Weather History for LICZ - February, 2013

Change the Weather History Date:

Monday, February 25, 2013

  Actual Average Record
Temperature  
Mean Temperature 47 °F -  
Max Temperature 61 °F 64 °F 73 °F (2008)
Min Temperature 33 °F 43 °F 32 °F (2011)
Degree Days  
Heating Degree Days 18    
Moisture  
Dew Point 35 °F    
Average Humidity 71    
Maximum Humidity 100    
Minimum Humidity 14    
Precipitation  
Precipitation 0.02 in 0.04 in - ()
Sea Level Pressure  
Sea Level Pressure 29.98 in    
Wind  
Wind Speed 4 mph ()    
Max Wind Speed 10 mph    
Max Gust Speed -    
Visibility 5.5 miles    
Events Rain    
Averages and records for this station are not official NWS values.
T = Trace of Precipitation, MM = Missing Value Source: Averaged Metar Reports

Daily Weather History Graph

Daily Weather History Graph

Search for Another Location

Airport or City:

Trip Planner

Search our weather history database for the weather conditions in past years. The results will help you decide how hot, cold, wet, or windy it might be!

Date:

Astronomy

Feb. 25, 2013 Rise Set
Actual Time 6:37 AM CET 5:50 PM CET
Civil Twilight 6:10 AM CET 6:16 PM CET
Nautical Twilight 5:40 AM CET 6:46 PM CET
Astronomical Twilight 5:10 AM CET 7:17 PM CET
Moon 5:44 PM CET (2/25) 5:58 AM CET (2/25)
Length of Visible Light 12h 05m
Length of Day
11h 13m
Full, 100% of the Moon is Illuminated
Feb 25
Full
Feb 25
Full
Mar 4
Last Quarter
Mar 11
New
Mar 19
First Quarter

Hourly Weather History & Observations

Time (CET) Temp. Windchill Dew Point Humidity Pressure Visibility Wind Dir Wind Speed Gust Speed Precip Events Conditions
1:00 AM 41 °F - 36 °F 74% 29.99 in 6 mi NNW 4.6 mph - -   Scattered Clouds
1:55 AM 39.2 °F 35.9 °F 35.6 °F 87% 29.98 in - West 4.6 mph - N/A   Clear
2:55 AM 37.4 °F 34.9 °F 35.6 °F 93% 29.98 in - WNW 3.5 mph - N/A   Clear
4:00 AM 35 °F - 35 °F 97% 29.99 in 6 mi WSW 4.6 mph - -  
4:55 AM 33.8 °F 30.8 °F 33.8 °F 100% 29.98 in - West 3.5 mph - N/A   Clear
5:55 AM 33.8 °F - 33.8 °F 100% 29.98 in 6.2 mi NNW 2.3 mph - N/A   Partly Cloudy
6:55 AM 32.0 °F 26.4 °F 32.0 °F 100% 29.98 in 6.2 mi WSW 5.8 mph - N/A   Scattered Clouds
7:00 AM 32 °F - 32 °F 100% 30.00 in 6 mi WSW 5.8 mph - -   Scattered Clouds
7:55 AM 33.8 °F 29.6 °F 33.8 °F 100% 30.01 in 6.2 mi WSW 4.6 mph - N/A   Scattered Clouds
8:55 AM 41.0 °F 39.0 °F 41.0 °F 100% 30.01 in 6.2 mi WNW 3.5 mph - N/A   Scattered Clouds
9:55 AM 42.8 °F - 42.8 °F 100% 30.01 in 6.2 mi NW 2.3 mph - N/A   Scattered Clouds
10:00 AM 42 °F - 42 °F 100% 30.02 in 6 mi NW 2.3 mph - -   Scattered Clouds
10:55 AM 51.8 °F - 33.8 °F 50% 30.01 in 6.2 mi NW 3.5 mph - N/A   Scattered Clouds
11:55 AM 57.2 °F - 30.2 °F 36% 29.98 in 6.2 mi WSW 10.4 mph - N/A   Scattered Clouds
12:55 PM 59.0 °F - 26.6 °F 29% 29.98 in 6.2 mi WSW 6.9 mph - N/A   Mostly Cloudy
1:00 PM 59 °F - 27 °F 18% 29.99 in 6 mi WSW 6.9 mph - -   Scattered Clouds
1:55 PM 59.0 °F - 24.8 °F 27% 29.95 in 6.2 mi West 5.8 mph - N/A   Mostly Cloudy
2:55 PM 62.6 °F - 28.4 °F 27% 29.95 in 6.2 mi West 5.8 mph - N/A   Mostly Cloudy
3:55 PM 60.8 °F - 24.8 °F 25% 29.95 in 6.2 mi East 10.4 mph - N/A   Mostly Cloudy
4:00 PM 61 °F - 24 °F 14% 29.96 in 6 mi East 10.4 mph - -   Scattered Clouds
4:55 PM 55.4 °F - 30.2 °F 38% 29.95 in 6.2 mi East 10.4 mph - N/A   Mostly Cloudy
5:55 PM 53.6 °F - 33.8 °F 47% 29.95 in 5.0 mi East 8.1 mph - N/A   Mostly Cloudy
6:55 PM 51.8 °F - 39.2 °F 62% 29.95 in 3.7 mi East 3.5 mph - N/A Rain Light Rain
7:00 PM 52 °F - 40 °F 52% 29.97 in 4 mi East 3.5 mph - - Rain Light Rain
7:55 PM 50.0 °F - 48.2 °F 94% 29.98 in 3.7 mi Calm Calm - N/A Rain Light Rain
8:55 PM 46.4 °F 42.4 °F 44.6 °F 93% 30.01 in 4.3 mi South 8.1 mph - N/A   Mostly Cloudy
9:55 PM 46.4 °F 44.3 °F 46.4 °F 100% 30.01 in 4.3 mi East 4.6 mph - N/A   Mostly Cloudy
10:55 PM 46.4 °F 43.5 °F 46.4 °F 100% 30.01 in 3.7 mi NE 5.8 mph - N/A Rain Light Rain
11:55 PM 44.6 °F - 44.6 °F 100% 30.01 in 4.3 mi Calm Calm - N/A Rain Light Rain